Weather History for Wausau, WI

Change the Weather History Date:

Monday, March 4, 2013

  Actual Average Record
Temperature  
Mean Temperature 17 °F 25 °F  
Max Temperature 29 °F 34 °F 61 °F (2000)
Min Temperature 4 °F 16 °F -16 °F (1913)
Degree Days  
Heating Degree Days 48 40  
Month to date heating degree days 188 162  
Since 1 July heating degree days 6012 6298  
Cooling Degree Days 0 0  
Month to date cooling degree days 0 0  
Year to date cooling degree days 0 0  
Moisture  
Dew Point 8 °F    
Average Humidity 66    
Maximum Humidity 92    
Minimum Humidity 39    
Precipitation  
Precipitation 0.00 in 0.05 in 1.03 in (1961)
Month to date precipitation T 0.19  
Year to date precipitation 3.15 2.13  
Snow  
Snow 0.00 in 0.40 in 10.00 in (1985)
Month to date snowfall T 1.6  
Since 1 July snowfall 56.0 46.9  
Snow Depth 13.00 in    
Sea Level Pressure  
Sea Level Pressure 30.13 in    
Wind  
Wind Speed 7 mph (ESE)    
Max Wind Speed 12 mph    
Max Gust Speed -    
Visibility 10 miles    
Events      
T = Trace of Precipitation, MM = Missing Value Source: NWS Daily Summary

Daily Weather History Graph

Daily Weather History Graph

Search for Another Location

Airport:

Trip Planner

Search our weather history database for the weather conditions in past years. The results will help you decide how hot, cold, wet, or windy it might be!

Date:

Astronomy

Mar. 04, 2013 Rise Set
Actual Time 6:30 AM CST 5:50 PM CST
Civil Twilight 6:01 AM CST 6:19 PM CST
Nautical Twilight 5:27 AM CST 6:53 PM CST
Astronomical Twilight 4:53 AM CST 7:27 PM CST
Moon 12:50 AM CST (3/4) 10:20 AM CST (3/4)
Length of Visible Light 12h 18m
Length of Day
11h 19m
Waning Gibbous, 52% of the Moon is Illuminated
Mar 4
Waning Gibbous
Mar 4
Last Quarter
Mar 11
New
Mar 19
First Quarter
Mar 27
Full

Hourly Weather History & Observations

Time (CST) Temp. Windchill Dew Point Humidity Pressure Visibility Wind Dir Wind Speed Gust Speed Precip Events Conditions
12:54 AM 8.1 °F - -0.9 °F 67% 30.13 in 10.0 mi Calm Calm - N/A   Clear
1:54 AM 7.0 °F 0.1 °F -2.0 °F 67% 30.15 in 10.0 mi East 3.5 mph - N/A   Clear
2:54 AM 6.1 °F - -2.0 °F 69% 30.16 in 10.0 mi Calm Calm - N/A   Clear
3:54 AM 6.1 °F -0.9 °F -2.0 °F 69% 30.16 in 10.0 mi East 3.5 mph - N/A   Clear
4:54 AM 8.1 °F -0.5 °F 1.0 °F 73% 30.17 in 10.0 mi East 4.6 mph - N/A   Clear
6:54 AM 9.0 °F -2.2 °F 5.0 °F 84% 30.16 in 10.0 mi East 6.9 mph - N/A   Clear
7:54 AM 10.9 °F 0.2 °F 8.1 °F 88% 30.17 in 10.0 mi East 6.9 mph - N/A   Clear
8:54 AM 16.0 °F 6.3 °F 10.0 °F 77% 30.17 in 10.0 mi East 6.9 mph - N/A   Clear
9:54 AM 19.9 °F 10.1 °F 10.0 °F 65% 30.16 in 10.0 mi East 8.1 mph - N/A   Scattered Clouds
10:54 AM 23.0 °F 13.1 °F 10.9 °F 60% 30.15 in 10.0 mi ESE 9.2 mph - N/A   Partly Cloudy
11:54 AM 25.0 °F 14.8 °F 10.9 °F 55% 30.14 in 10.0 mi East 10.4 mph - N/A   Mostly Cloudy
12:54 PM 27.0 °F 17.3 °F 9.0 °F 47% 30.12 in 10.0 mi ESE 10.4 mph - N/A   Overcast
1:54 PM 28.0 °F 18.6 °F 10.0 °F 47% 30.10 in 10.0 mi SE 10.4 mph - N/A   Overcast
2:54 PM 28.0 °F 19.3 °F 8.1 °F 43% 30.10 in 10.0 mi ESE 9.2 mph - N/A   Overcast
3:54 PM 28.0 °F 18.1 °F 7.0 °F 41% 30.10 in 10.0 mi ESE 11.5 mph - N/A   Overcast
4:54 PM 27.0 °F 17.3 °F 10.0 °F 49% 30.11 in 10.0 mi ESE 10.4 mph - N/A   Overcast
5:54 PM 27.0 °F 17.3 °F 12.0 °F 53% 30.11 in 10.0 mi East 10.4 mph - N/A   Overcast
6:54 PM 26.1 °F 16.8 °F 14.0 °F 60% 30.12 in 10.0 mi East 9.2 mph - N/A   Overcast
7:54 PM 25.0 °F 14.8 °F 14.0 °F 63% 30.12 in 10.0 mi East 10.4 mph - N/A   Overcast
8:54 PM 25.0 °F 16.3 °F 15.1 °F 66% 30.12 in 10.0 mi East 8.1 mph - N/A   Overcast
9:54 PM 25.0 °F 14.8 °F 12.9 °F 60% 30.11 in 10.0 mi ESE 10.4 mph - N/A   Overcast
10:54 PM 25.0 °F 16.3 °F 10.9 °F 55% 30.12 in 10.0 mi ESE 8.1 mph - N/A   Overcast
11:54 PM 25.0 °F 16.3 °F 10.0 °F 53% 30.13 in 10.0 mi ESE 8.1 mph - N/A   Overcast